Location: Newark
(50.4348°N, 30.5552°E)
Time: 00:59:04
(UTC+00:00)

Tiros 1 despin weight - Pass Details

Date: 26 January 2020
Orbit: 594 x 642 km, 48.2° (Epoch: 20 February)

Event Time Altitude Azimuth Distance (km) Brightness Sun altitude
Rises 15:02:47 0° 278° (W) 2,917 ? -4.2°
Reaches altitude 10° 15:05:47 10° 258° (WSW) 2,015 ? -4.6°
Maximum altitude 15:08:44 17° 219° (SW) 1,615 ? -5.0°
Drops below altitude 10° 15:11:41 10° 179° (S) 2,020 ? -5.5°
Sets 15:14:43 0° 159° (SSE) 2,929 ? -5.9°
